Hourly Data Report for September 23, 2017

All times are specified in Local Standard Time (LST). Add 1 hour to adjust for Daylight Saving Time where and when it is observed.

KUGLUKTUK A
NUNAVUT

67°49'00.000" N
115°08'38.000" W
22.60 m
2300903
71938
YCO

Download Data

Hourly Data (September 2017)
Hourly Data Report for September 23, 2017
Temp Definition
°C
Dew Point Temp Definition
°C
Rel Hum Definition
%
Wind Dir Definition
10's deg

Wind Spd Definition
km/h
Visibility Definition
km
Stn Press Definition
kPa
Hmdx Definition


Wind Chill Definition


Weather Definition


TIME
00:00 Legend Double Dagger 3.9 2.8 92 18 8 24.1 101.64     LegendNANA
01:00 Legend Double Dagger 3.8 2.2 89 27 5 24.1 101.66     LegendNANA
02:00 Legend Double Dagger 4.8 1.9 82 27 6 24.1 101.66     Cloudy
03:00 Legend Double Dagger 3.2 1.8 90 36 2 24.1 101.66     LegendNANA
04:00 Legend Double Dagger 3.3 2.4 94 36 3 24.1 101.66     LegendNANA
05:00 Legend Double Dagger 4.2 1.8 84 36 1 24.1 101.66     Cloudy
06:00 Legend Double Dagger 2.4 1.1 92 16 4 24.1 101.67     LegendNANA
07:00 Legend Double Dagger 0.4 0.2 98 18 9 24.1 101.67     LegendNANA
08:00 Legend Double Dagger 0.6 -0.4 93 17 9 24.1 101.69     Mainly Clear
09:00 Legend Double Dagger 2.7 0.9 88 15 6 24.1 101.68     LegendNANA
10:00 Legend Double Dagger 6.2 1.9 74 14 10 24.1 101.67     LegendNANA
11:00 Legend Double Dagger 6.4 2.2 75 12 9 24.1 101.66     Mainly Clear
12:00 Legend Double Dagger 7.7 3.8 76 2 10 24.1 101.65     LegendNANA
13:00 Legend Double Dagger 9.4 4.2 70 7 13 24.1 101.62     LegendNANA
14:00 Legend Double Dagger 8.7 4.7 76 6 15 24.1 101.63     Mainly Clear
15:00 Legend Double Dagger 9.6 3.6 66 9 8 24.1 101.61     LegendNANA
16:00 Legend Double Dagger 10.4 1.4 53 17 13 24.1 101.60     LegendNANA
17:00 Legend Double Dagger 10.1 0.5 51 21 14 24.1 101.58     Mainly Clear
18:00 Legend Double Dagger 6.8 3.0 77 28 7 24.1 101.59     LegendNANA
19:00 Legend Double Dagger 6.5 3.2 79 27 4 24.1 101.59     LegendNANA
20:00 Legend Double Dagger 1.2 0.8 97 19 3 8.1 101.60     Fog
21:00 Legend Double Dagger 2.0 2.0 100 36 1 0.4 101.59     Fog
22:00 Legend Double Dagger 4.0 4.0 100 1 8 0.4 101.59     Fog
23:00 Legend Double Dagger 1.6 1.5 100 36 2 0.4 101.58     Fog

Notes on Data Quality.

Legend

  • E = Estimated
  • M = Missing
  • NA = Not Available
  • ‡ = Partner data that is not subject to review by the National Climate Archives
Date modified: